Location: Orient Land Trust / Valley View Hot Springs
(38.1923°N, 105.8154°W)
Time: 10:18:47
(UTC-06:00)

Envisat - Visible Passes

Search period start: 22 September 2020 00:00
Search period end: 02 October 2020 00:00
Orbit: 764 x 766 km, 98.1° (Epoch: 22 September)

Date Brightness Start Highest point End Pass type
(mag) Time Alt. Az. Time Alt. Az. Time Alt. Az.
22 Sep 5.9 06:05:56 10° NE 06:09:39 20° E 06:13:20 10° SE visible
24 Sep 6.0 19:23:30 10° SW 19:27:18 21° W 19:31:08 10° NW visible
25 Sep 6.1 05:55:11 10° NE 05:58:11 16° E 06:01:11 10° SE visible
26 Sep 6.6 19:51:24 10° WSW 19:53:00 11° W 19:54:37 10° WNW visible
27 Sep 5.4 06:19:29 10° NE 06:23:50 28° E 06:28:09 10° SSE visible
27 Sep 5.6 19:11:37 10° SSW 19:15:52 27° W 19:20:09 10° NW visible
28 Sep 6.4 05:44:50 10° ENE 05:46:43 12° E 05:48:35 10° ESE visible
29 Sep 6.2 19:38:40 10° SW 19:41:31 15° W 19:44:24 10° WNW visible
30 Sep 5.8 06:08:29 10° NE 06:12:24 22° E 06:16:17 10° SE visible
